Lafayette, IN

9:57 PM EDT on April 23, 2018 (GMT -0400)
Purdue Univ

Weather History for KLAF - December, 2010

Change the Weather History Date:

Friday, December 3, 2010

  Actual Average Record
Temperature  
Mean Temperature 30 °F 35 °F  
Max Temperature 36 °F 42 °F 70 °F (1982)
Min Temperature 24 °F 27 °F -1 °F (1966)
Degree Days  
Heating Degree Days 35 30  
Month to date heating degree days 111 89  
Since 1 July heating degree days 1069 1190  
Cooling Degree Days 0 0  
Month to date cooling degree days 0 0  
Year to date cooling degree days 1342 983  
Moisture  
Dew Point 21 °F    
Average Humidity 70    
Maximum Humidity 88    
Minimum Humidity 52    
Precipitation  
Precipitation T in 0.09 in 0.84 in (1951)
Month to date precipitation 0.01 0.29  
Year to date precipitation 34.76 34.36  
Sea Level Pressure  
Sea Level Pressure 30.20 in    
Wind  
Wind Speed 2 mph (NNE)    
Max Wind Speed 9 mph    
Max Gust Speed 12 mph    
Visibility 10 miles    
Events Snow    
T = Trace of Precipitation, MM = Missing Value Source: NWS Daily Summary

Daily Weather History Graph

Daily Weather History Graph

Search for Another Location

Airport or City:

Astronomy

Dec. 03, 2010 Rise Set
Actual Time 7:53 AM EST 5:21 PM EST
Civil Twilight 7:23 AM EST 5:51 PM EST
Nautical Twilight 6:49 AM EST 6:25 PM EST
Astronomical Twilight 6:16 AM EST 6:58 PM EST
Moon 5:40 AM EST (12/3) 3:37 PM EST (12/3)
Length of Visible Light 10h 28m
Length of Day
9h 27m
Waning Crescent, 5% of the Moon is Illuminated
Dec 3
Waning Crescent
Dec 5
New
Dec 13
First Quarter
Dec 21
Full
Dec 27
Last Quarter

Hourly Weather History & Observations

Time (EST) Temp. Windchill Dew Point Humidity Pressure Visibility Wind Dir Wind Speed Gust Speed Precip Events Conditions
12:54 AM 30.0 °F - 24.1 °F 79% 30.21 in 10.0 mi Calm Calm - N/A   Overcast
1:54 AM 30.0 °F - 24.1 °F 79% 30.19 in 10.0 mi Calm Calm - N/A   Overcast
2:54 AM 30.0 °F 25.2 °F 21.9 °F 72% 30.20 in 10.0 mi NNW 4.6 mph - N/A   Overcast
3:54 AM 30.0 °F 25.2 °F 21.9 °F 72% 30.21 in 10.0 mi NNW 4.6 mph - N/A   Overcast
5:54 AM 27.0 °F 23.0 °F 21.9 °F 81% 30.22 in 10.0 mi NNW 3.5 mph - N/A   Mostly Cloudy
6:54 AM 25.0 °F 17.1 °F 21.0 °F 85% 30.22 in 10.0 mi North 6.9 mph - N/A   Clear
7:54 AM 25.0 °F - 21.0 °F 85% 30.22 in 10.0 mi Calm Calm - N/A   Clear
8:54 AM 26.1 °F - 21.0 °F 81% 30.25 in 9.0 mi Calm Calm - N/A   Clear
9:54 AM 28.9 °F - 21.9 °F 75% 30.25 in 10.0 mi Calm Calm - N/A   Clear
11:54 AM 33.1 °F 30.0 °F 19.9 °F 59% 30.25 in 10.0 mi NW 3.5 mph - N/A   Clear
12:54 PM 34.0 °F - 19.9 °F 56% 30.22 in 10.0 mi Calm Calm - N/A   Clear
1:54 PM 34.0 °F - 19.9 °F 56% 30.20 in 10.0 mi Calm Calm - N/A   Clear
2:54 PM 35.1 °F - 19.0 °F 52% 30.19 in 10.0 mi Calm Calm - N/A   Clear
3:54 PM 35.1 °F - 19.9 °F 54% 30.20 in 10.0 mi Calm Calm - N/A   Clear
4:54 PM 34.0 °F 29.8 °F 21.0 °F 59% 30.20 in 10.0 mi WNW 4.6 mph - N/A   Clear
5:54 PM 33.1 °F - 21.9 °F 64% 30.20 in 10.0 mi Calm Calm - N/A   Clear
6:54 PM 32.0 °F - 21.9 °F 66% 30.20 in 10.0 mi Calm Calm - N/A   Clear
7:54 PM 32.0 °F 28.7 °F 21.9 °F 66% 30.19 in 10.0 mi ENE 3.5 mph - N/A   Partly Cloudy
8:54 PM 33.1 °F 27.7 °F 21.9 °F 64% 30.18 in 10.0 mi East 5.8 mph - N/A   Overcast
9:54 PM 33.1 °F 30.0 °F 21.9 °F 64% 30.17 in 10.0 mi SE 3.5 mph - N/A   Overcast
10:54 PM 33.1 °F 28.7 °F 21.9 °F 64% 30.16 in 10.0 mi ESE 4.6 mph - N/A   Overcast
11:54 PM 32.0 °F 26.4 °F 23.0 °F 69% 30.17 in 4.0 mi SSE 5.8 mph - 0.00 in Snow Light Snow